Weather History for KPIA - September, 2011

Change the Weather History Date:

Saturday, September 10, 2011

  Actual Average Record
Temperature  
Mean Temperature 69 °F 69 °F  
Max Temperature 77 °F 79 °F 98 °F (2013)
Min Temperature 61 °F 58 °F 41 °F (1910)
Degree Days  
Heating Degree Days 0 1  
Month to date heating degree days 13 9  
Since 1 July heating degree days 13 15  
Cooling Degree Days 4 5  
Month to date cooling degree days 64 60  
Year to date cooling degree days 1233 967  
Growing Degree Days 18 (Base 50)    
Moisture  
Dew Point 61 °F    
Average Humidity 76    
Maximum Humidity 93    
Minimum Humidity 58    
Precipitation  
Precipitation 0.00 in 0.11 in 3.37 in (1911)
Month to date precipitation 1.18 1.11  
Year to date precipitation 29.18 26.06  
Snow  
Snow 0.00 in 0.00 in 0.00 in ()
Month to date snowfall 0.0 0.0  
Since 1 July snowfall 0.0 0.0  
Since 1 September snowfall 0.0 0.0  
Snow Depth 0.00 in    
Sea Level Pressure  
Sea Level Pressure 29.99 in    
Wind  
Wind Speed 2 mph (NE)    
Max Wind Speed 12 mph    
Max Gust Speed 15 mph    
Visibility 7 miles    
Events      
T = Trace of Precipitation, MM = Missing Value Source: NWS Daily Summary

Daily Weather History Graph

Daily Weather History Graph

Search for Another Location

Airport or City:

Trip Planner

Search our weather history database for the weather conditions in past years. The results will help you decide how hot, cold, wet, or windy it might be!

Date:

Astronomy

Sep. 10, 2011 Rise Set
Actual Time 6:34 AM CDT 7:16 PM CDT
Civil Twilight 6:06 AM CDT 7:44 PM CDT
Nautical Twilight 5:33 AM CDT 8:16 PM CDT
Astronomical Twilight 5:00 AM CDT 8:50 PM CDT
Moon 6:11 PM CDT (9/10) 4:54 AM CDT (9/10)
Length of Visible Light 13h 37m
Length of Day
12h 42m
Waxing Gibbous, 97% of the Moon is Illuminated
Sep 10
Waxing Gibbous
Sep 12
Full
Sep 20
Last Quarter
Sep 27
New
Oct 3
First Quarter

Hourly Weather History & Observations

Time (CDT) Temp. Dew Point Humidity Pressure Visibility Wind Dir Wind Speed Gust Speed Precip Events Conditions
12:54 AM 64.0 °F 61.0 °F 90% 29.96 in 10.0 mi Calm Calm - N/A   Overcast
1:28 AM 64.4 °F 62.6 °F 94% 29.97 in 10.0 mi Calm Calm - N/A   Overcast
1:37 AM 64.4 °F 62.6 °F 94% 29.96 in 10.0 mi Calm Calm - N/A   Overcast
1:54 AM 64.0 °F 61.0 °F 90% 29.96 in 9.0 mi Calm Calm - N/A   Overcast
2:15 AM 62.6 °F 62.6 °F 100% 29.96 in 7.0 mi Calm Calm - N/A   Overcast
2:23 AM 62.6 °F 62.6 °F 100% 29.96 in 7.0 mi Calm Calm - N/A   Overcast
2:54 AM 64.0 °F 62.1 °F 93% 29.96 in 7.0 mi Calm Calm - N/A   Overcast
3:15 AM 64.4 °F 62.6 °F 94% 29.96 in 6.0 mi Calm Calm - N/A   Overcast
3:54 AM 63.0 °F 61.0 °F 93% 29.96 in 4.0 mi Calm Calm - N/A   Overcast
4:23 AM 62.6 °F 62.6 °F 100% 29.97 in 4.0 mi Calm Calm - N/A   Overcast
4:54 AM 64.0 °F 62.1 °F 93% 29.96 in 3.0 mi ENE 3.5 mph - N/A   Overcast
5:05 AM 64.4 °F 62.6 °F 94% 29.97 in 3.0 mi Calm Calm - N/A   Overcast
5:12 AM 64.4 °F 62.6 °F 94% 29.97 in 3.0 mi Calm Calm - N/A   Overcast
5:25 AM 64.4 °F 62.6 °F 94% 29.98 in 3.0 mi Calm Calm - N/A   Overcast
5:54 AM 64.0 °F 62.1 °F 93% 29.98 in 3.0 mi Calm Calm - N/A   Overcast
6:54 AM 64.0 °F 62.1 °F 93% 30.00 in 2.5 mi Calm Calm - N/A   Overcast
7:09 AM 64.4 °F 62.6 °F 94% 30.00 in 1.8 mi NE 3.5 mph - N/A   Overcast
7:36 AM 64.4 °F 62.6 °F 94% 30.01 in 2.0 mi NE 3.5 mph - N/A   Overcast
7:54 AM 64.4 °F 62.6 °F 94% 30.01 in 2.0 mi NE 3.5 mph - N/A   Overcast
8:18 AM 64.4 °F 62.6 °F 94% 30.02 in 2.5 mi NE 3.5 mph - N/A   Overcast
8:32 AM 66.2 °F 62.6 °F 88% 30.01 in 3.0 mi NE 3.5 mph - N/A   Overcast
8:54 AM 66.0 °F 62.1 °F 87% 30.01 in 4.0 mi NE 4.6 mph - N/A   Overcast
9:54 AM 68.0 °F 61.0 °F 78% 30.02 in 9.0 mi NE 4.6 mph - N/A   Overcast
10:35 AM 69.8 °F 60.8 °F 73% 30.03 in 10.0 mi ENE 3.5 mph - N/A   Mostly Cloudy
10:54 AM 71.1 °F 62.1 °F 73% 30.03 in 10.0 mi NE 5.8 mph - N/A   Scattered Clouds
11:24 AM 69.8 °F 60.8 °F 73% 30.03 in 10.0 mi Calm Calm - N/A   Mostly Cloudy
11:37 AM 71.6 °F 60.8 °F 69% 30.04 in 10.0 mi ESE 3.5 mph - N/A   Overcast
11:54 AM 71.1 °F 61.0 °F 70% 30.03 in 10.0 mi East 5.8 mph - N/A   Overcast
12:54 PM 73.4 °F 60.8 °F 65% 30.02 in 10.0 mi ENE 3.5 mph - N/A   Mostly Cloudy
1:54 PM 75.0 °F 61.0 °F 62% 30.01 in 10.0 mi ENE 9.2 mph - N/A   Mostly Cloudy
2:54 PM 75.0 °F 60.1 °F 60% 30.00 in 10.0 mi NNE 4.6 mph - N/A   Mostly Cloudy
3:54 PM 75.0 °F 59.0 °F 57% 29.99 in 10.0 mi NNE 5.8 mph - N/A   Scattered Clouds
4:54 PM 75.9 °F 59.0 °F 56% 29.99 in 10.0 mi NE 4.6 mph - N/A   Partly Cloudy
5:54 PM 73.0 °F 60.1 °F 64% 29.99 in 10.0 mi Calm Calm - N/A   Clear
6:54 PM 73.0 °F 60.1 °F 64% 29.99 in 10.0 mi Calm Calm - N/A   Partly Cloudy
7:54 PM 69.8 °F 60.8 °F 73% 30.00 in 10.0 mi Calm Calm - N/A   Partly Cloudy
8:54 PM 66.0 °F 59.0 °F 78% 30.02 in 10.0 mi NE 3.5 mph - N/A   Clear
9:54 PM 66.0 °F 60.1 °F 81% 30.01 in 10.0 mi Calm Calm - N/A   Clear
10:54 PM 63.0 °F 60.1 °F 90% 30.02 in 10.0 mi Calm Calm - N/A   Partly Cloudy
11:54 PM 62.1 °F 59.0 °F 90% 30.03 in 8.0 mi Calm Calm - N/A   Clear